THOR ABLESTAR DEB, 6748

Orbit data source: Space-Track

THOR ABLESTAR DEB, 6748 is space debris in LEO originally from a launch on Thu, 29 Jun 1961 UTC launched from the Air Force Eastern Test Range (AFETR). Debris objects in space refer to the collection of defunct objects orbiting the Earth. Examples of debris include non-operational satellites, rocket bodies, and fragments generated from explosions, collisions, or faulty payload assembly.

Loading next visibility...
Identifier
6748, 1961-015KN
Orbit
LEO
Country
Flag of USUS
Related business
Manufacturer
Unknown
Mission
Spacecraft
Bus & Motor
Unknown
Mass
Unknown
Launch date (UTC)
1961-06-29 (65 years ago)
Launch vehicle
Unknown
Launch site
Air Force Eastern Test Range (AFETR)
Object type
Payload
Rocket body
Debris
Shape & HBR
Unknown shape, 0.1 m
Radar Cross Section
Medium (>0.1 m² and <1 m²)

Expand to show TLE details & history
Last TLE update: 2 days ago

TLE from 2 days ago
0 THOR ABLESTAR DEB
1  6748U 61015KN  26171.39336801  .00003498  00000-0  11999-2 0  9993
2  6748  66.8940 310.3892 0066425 289.3935  69.9995 14.36004409291121
Epoch: 2026-06-20T09:26Z
TLE epoch observation values (Epoch: 2026-06-20T09:26:26.996Z)
Latitude
-0.00008°
Longitude
-99.83195°
Altitude
757.892 km
Speed
7.484 km/s
True Right ascension
20h 41m 33s
True Declination
0° 00' 00"
Sunlit
Object was in full shadow at epoch
Visualization orbit readout
Latitude
Unknown
Longitude
Unknown
Altitude
Unknown
Speed
Unknown
Apparent Right ascension
Unknown
Apparent Declination
Unknown
Sunlit
N/A
Visualization observer readout
Local Sidereal Time
04:00:02
Azimuth
Unknown
Elevation
Unknown
Doppler factor
Unknown
Orbital elements
Apogee altitude
817.56 km
Perigee altitude
722.596 km
Semi-major axis
7,148.215 km
Eccentricity
0.00664
Inclination
66.894°
RAAN
310.3892°
Arg. of periapsis
289.3935°
True anomaly
70.71679°
Mean anomaly
69.9995°
Eccentric anomaly
70.35794°
Mean motion
3.59126 °/min
Orbital period
100.24 mins
BSTAR
0.0011999
Loading maneuver chart data...
Computing Atmospheric mass density...

Documentation

Showing up to 5 results
|